EW7502 Weather Reports


time (UTC)temp
C
wind
direction
speed
KPH
gust
KPH
rain 1hr
cm
rain 24hr
cm
rain mn
cm
humidity
%
barometer
mb
20260504214540 22 236 0.0 0.0 0.00 0.00 0.00 35 1008.8
20260504213044 22 182 0.0 0.0 0.00 0.00 0.00 35 1008.8
20260504211544 22 173 0.0 0.0 0.00 0.00 0.00 36 1008.9
20260504210038 22 231 0.0 0.0 0.00 0.00 0.00 36 1009.0
20260504204539 23 164 0.0 0.0 0.00 0.00 0.00 33 1009.0
20260504203035 22 200 0.0 0.0 0.00 0.00 0.00 34 1008.9
20260504201533 22 182 0.0 0.0 0.00 0.00 0.00 34 1009.0
20260504200032 22 195 0.0 0.0 0.00 0.00 0.00 35 1009.0
20260504194531 23 227 0.0 0.0 0.00 0.00 0.00 33 1009.1
20260504193029 22 151 0.0 0.0 0.00 0.00 0.00 35 1009.2
20260504191527 22 193 0.0 0.0 0.00 0.00 0.00 34 1009.5
20260504190024 22 217 0.0 0.0 0.00 0.00 0.00 35 1009.8
20260504184522 22 165 0.0 0.0 0.00 0.00 0.00 34 1010.0
20260504183020 22 183 0.0 0.0 0.00 0.00 0.00 37 1010.2
20260504181518 22 235 0.0 0.0 0.00 0.00 0.00 34 1010.4
20260504180013 22 212 0.0 0.0 0.00 0.00 0.00 38 1010.6
20260504174511 21 204 0.0 0.0 0.00 0.00 0.00 37 1010.9
20260504173009 21 222 0.0 0.0 0.00 0.00 0.00 37 1010.9
20260504171507 21 173 0.0 0.0 0.00 0.00 0.00 37 1011.1
20260504081521 0 223 0.0 0.0 0.00 0.00 0.00 90 1014.0
20260504050106 1 223 0.0 0.0 0.00 0.00 0.00 86 1013.6
20260504044601 1 223 0.0 0.0 0.00 0.00 0.00 85 1013.5
20260504043056 1 223 0.0 0.0 0.00 0.00 0.00 85 1013.3
20260504041557 2 223 0.0 0.0 0.00 0.00 0.00 84 1013.2
20260504040052 2 223 0.0 0.0 0.00 0.00 0.00 84 1013.0
20260504034549 2 223 0.0 0.0 0.00 0.00 0.00 84 1012.9
20260504033046 2 223 0.0 0.0 0.00 0.00 0.00 82 1012.9
20260504031547 2 223 0.0 0.0 0.00 0.00 0.00 82 1012.7
20260504030042 3 223 0.0 0.0 0.00 0.00 0.00 81 1012.7
20260504024551 3 223 0.0 0.0 0.00 0.00 0.00 80 1012.7
20260504023038 3 223 0.0 0.0 0.00 0.00 0.00 78 1012.8
20260504021536 4 223 0.0 0.0 0.00 0.00 0.00 77 1012.6
20260504020033 5 223 0.0 0.0 0.00 0.00 0.00 76 1012.6
20260504014532 5 223 0.0 0.0 0.00 0.00 0.00 75 1012.5
20260504013035 6 223 0.0 0.0 0.00 0.00 0.00 73 1012.4
20260504011532 6 223 0.0 0.0 0.00 0.00 0.00 70 1012.2
20260504010030 7 223 0.0 0.0 0.00 0.00 0.00 68 1012.0
20260504004530 8 223 0.0 0.0 0.00 0.00 0.00 63 1011.8
20260504003038 9 223 0.0 0.0 0.00 0.00 0.00 59 1011.7
20260504001528 11 223 0.0 0.0 0.00 0.00 0.00 53 1011.5
20260504000051 12 223 0.0 0.0 0.00 0.00 0.00 49 1011.2
20260503234528 13 223 0.0 0.0 0.00 0.00 0.00 43 1011.0
20260503233027 13 216 0.0 0.0 0.00 0.00 0.00 38 1011.0
20260503231529 14 234 0.0 0.0 0.00 0.00 0.00 36 1010.9
20260503230026 14 209 0.0 0.0 0.00 0.00 0.00 35 1010.7
20260503224526 15 213 0.0 0.0 0.00 0.00 0.00 35 1010.7
20260503223032 15 213 0.0 0.0 0.00 0.00 0.00 32 1010.7
20260503221524 15 207 0.0 0.0 0.00 0.00 0.00 33 1010.6
20260503220024 15 188 0.0 0.0 0.00 0.00 0.00 31 1010.8